Weather in Boca Chica

Dominican Republic     18°27′16″N   69°35′24″W
temp.,
°C
wind,
m/s
gust,
m/s
humid.,
%
clouds,
%
prec.,
mm/h
press.,
hPa
HPBL,
m
27 november, sat
sat2723:00+21ne228517 0.0 101530
02:00+21ne228722 0.0 101332
05:00+20ne11896 0.0 101314
08:00+22nne2283100 0.0 101588
11:00+29ene33544 0.0 10161215
14:00+31ene334794 0.0 10122008
17:00+27ne576180 0.0 1012555
20:00+22ne398376 0.0 1014195
28 november, sun
sun2823:00+21nne34862 0.0 101568
02:00+20n239044 0.0 101439
05:00+20n349382 0.0 101470
08:00+22nne238367 0.0 1015118
11:00+29ne4553100 0.0 10151406
14:00+31ene444295 0.0 10121811
17:00+29ene555324 0.0 10121071
20:00+22ne39895 0.0 1014201
29 november, mon
mon2923:00+21ne23947 0.0 101566
02:00+20nnw229721 0.0 101440
05:00+20nne22968 0.0 101326
08:00+22n23905 0.0 101595
11:00+29e235679 0.0 10151206
14:00+32se324516 0.0 10121781
17:00+28sse44665 0.0 1012501
20:00+23e22888 0.3 101433
30 november, tue
tue3023:00+22nne229535 0.0 101539
02:00+21n239610 0.0 101444
05:00+21nne229658 0.0 101435
08:00+22n259331 0.0 1016155
11:00+30ne455481 0.0 10161395
14:00+32ne4441100 0.0 10131999
17:00+29ene4556100 0.0 1013726
20:00+23ne3887100 0.0 1015202
1 december, wed
wed123:00+22ne259598 0.0 101691
02:00+22n2296100 0.0 101535
05:00+22n239637 0.0 101548
08:00+23n248953 0.0 1016140
11:00+30ene45556 0.0 10171481
14:00+32ese444964 0.1 10141521
17:00+29e446181 0.3 1014726
20:00+23ene499052 0.3 1016238